Tracking 29892 objects as of 21-Nov-2024
HD Live streaming from Space Station
objects crossing your sky now

STARLINK-4033

Track STARLINK-4033 now!
10-day predictions
STARLINK-4033 is classified as:


NORAD ID: 52702
Int'l Code: 2022-053AY
Perigee: 545.8 km
Apogee: 548.0 km
Inclination: 53.2 °
Period: 95.4 minutes
Semi major axis: 6917 km
RCS: Unknown
Launch date: May 18, 2022
Source: United States (US)
Launch site: AIR FORCE EASTERN TEST RANGE (AFETR)
Your satellite tracking list
Your tracking list is empty




NASA's NSSDC Master Catalog

Two Line Element Set (TLE):
1 52702U 22053AY  24325.43670057 -.00000790  00000-0 -31533-4 0  9993
2 52702  53.2169 118.1507 0001588  88.2989 271.8185 15.08847196139490
Source of the keplerian elements: AFSPC